[[{"header":{"parameterUnit":"m.s-1","parameterCategory":1,"la1":30.2991,"la2":30.254,"lo1":-89.0895,"lo2":-89.0444,"dy":0.0017,"dx":0.0017,"nx":28,"ny":28,"refTime":"2024-09-27T21:00:00:Z","depth":0,"parameterNumber":2,"parameterNumberName":"U-component_of_WINDS"},"data":[0,0,0,0,0,0,0,0,0,0,0,0,0,0,0,0,0,0,0,0,0,0,0,0,0,0,0,0,0,0,0,0,0,0,0,0,0,0,0,0,0,0,0,0,0,0,0,0,0,0,0,0,0,0,0,0,0,0,4.3853,4.3855,0,4.402,4.4022,4.4024,4.393,4.3925,4.3921,4.3916,4.4095,4.4104,4.4113,0,0,0,0,0,0,0,0,0,0,0,0,0,4.3457,4.3464,4.3853,4.3855,4.3857,4.402,4.4022,4.4025,4.3931,4.3925,4.3919,4.3914,4.4092,4.4103,4.4114,0,0,0,0,0,0,0,0,0,0,0,0,0,4.3627,4.3467,4.3852,4.383,4.3829,4.402,4.4023,4.4025,4.3932,4.3925,4.3918,4.3911,4.4088,4.4102,4.4115,4.434,0,0,4.4157,4.4163,0,0,0,0,0,0,0,0,4.3618,4.3642,4.3831,4.3831,4.3831,4.3947,4.3948,4.4131,4.3934,4.3893,4.3916,4.3908,4.4052,4.4068,4.4115,4.4348,4.4356,4.4158,4.4166,4.4172,4.4176,0,0,0,0,0,0,0,4.3606,4.3634,4.3919,4.3834,4.3834,4.3813,4.3829,4.3982,4.401,4.3896,4.389,4.391,4.4051,4.4102,4.4119,4.4359,4.4158,4.417,4.4178,4.4184,4.4783,4.4791,0,0,0,0,0,0,4.3595,4.3625,4.3914,4.3924,4.3705,4.3825,4.3844,4.3917,4.4008,4.4015,4.3916,4.3905,4.4082,4.4103,4.4125,4.4393,4.4172,4.4185,4.4193,4.4776,4.4785,4.4793,0,0,0,0,0,0,4.3587,4.3621,4.3907,4.3773,4.3807,4.384,4.3923,4.3924,4.3975,4.4023,4.4028,4.3963,4.4078,4.4105,4.4286,4.4397,4.4191,4.4204,4.4766,4.4778,4.4789,4.4931,0,0,0,0,0,0,4.3576,4.3619,4.3704,4.3775,4.3815,4.4065,4.393,4.3932,4.3998,4.3986,4.4069,4.4076,4.4074,4.4266,4.43,4.4413,4.4214,4.4757,4.4772,4.4785,4.4917,4.4946,4.4971,0,0,0,0,0,4.3562,4.3739,4.3708,4.3744,4.3921,4.4071,4.4094,4.4087,4.4008,4.4094,4.4124,4.4073,4.438,4.4286,4.4323,4.4441,4.475,4.4768,4.4784,4.4904,4.494,4.4971,0,0,0,0,0,0,4.3682,4.3748,4.3715,4.392,4.3991,4.4055,4.4163,4.4125,4.4222,4.4206,4.4195,4.4214,4.4402,4.444,4.4334,4.4663,4.4553,4.4578,4.4631,4.4666,4.4693,4.468,4.4226,0,0,0,0,0,4.3732,4.3847,4.3899,4.4075,4.4112,4.4132,4.4197,4.4185,4.4258,4.4288,4.4332,4.4407,4.452,4.4595,4.4702,4.4921,4.4938,4.5021,4.5049,4.5071,4.5093,4.5211,4.5248,4.485,4.485,4.485,0,0,4.3838,4.3888,4.3961,4.41,4.4153,4.4274,4.4158,4.429,4.438,4.4309,4.4481,4.4517,4.46,4.48,4.4891,4.4838,4.5207,4.5093,4.511,4.5121,4.5233,4.527,4.5304,4.4862,4.486,4.4858,0,0,4.4091,4.414,4.4291,4.4346,4.4427,4.4439,4.4475,4.4546,4.4565,4.4737,4.4686,4.4794,4.4989,4.505,4.5106,4.5381,4.5338,4.5416,4.5559,4.5674,4.5706,4.5733,4.5831,4.5866,4.5438,4.5439,4.5439,0,4.4213,4.439,4.4375,4.4511,4.4573,4.4512,4.4666,4.472,4.4834,4.4879,4.4816,4.5059,4.5111,4.5324,4.539,4.5439,4.548,4.5407,4.5702,4.573,4.5755,4.5848,4.5885,4.5448,4.5447,4.5446,4.5445,0,4.4535,4.4658,4.4771,4.4878,4.4954,4.5098,4.5106,4.5185,4.5166,4.5185,4.5361,4.5421,4.5538,4.5587,4.5572,4.5799,4.5763,4.5702,4.5591,4.5802,4.5889,4.5925,4.546,4.5457,4.5455,4.5452,0,0,4.487,4.4965,4.5007,4.5054,4.5137,4.5234,4.5376,4.5487,4.5554,4.5634,4.5753,4.5919,4.5862,4.5926,4.5916,4.6017,4.623,4.5944,4.5945,4.5994,4.6484,4.6529,4.657,4.6201,4.6208,4.6214,4.6476,0,4.5128,4.5372,4.5362,4.5592,4.5706,4.5648,4.5772,4.5837,4.5859,4.596,4.5984,4.6101,4.6017,4.6055,4.6153,4.6183,4.6328,4.6164,4.6313,4.6319,4.6294,4.6616,4.6664,4.691,4.651,4.6516,4.652,0,4.5462,4.5549,4.5789,4.5854,4.5901,4.6012,4.6113,4.621,4.6284,4.6292,4.6363,4.6336,4.6481,4.6366,4.6565,4.6454,4.6514,4.6539,4.6548,4.6562,4.6432,4.6638,4.6988,4.7024,4.6574,4.6569,4.6566,0,4.5681,4.5859,4.6025,4.6068,4.6148,4.6227,4.6265,4.6331,4.6398,4.6487,4.653,4.6636,4.6695,4.6778,4.6781,4.6697,4.6983,4.6868,4.6994,4.6995,4.7058,4.7054,4.7422,4.7097,4.7097,4.7096,4.7095,0,4.597,4.6119,4.6124,4.6227,4.6392,4.638,4.6544,4.6574,4.6633,4.6741,4.6699,4.6802,4.68,4.6905,4.6909,4.7073,4.71,4.7112,4.7111,4.7116,4.7114,4.7155,4.7138,4.7106,4.7103,4.7102,4.71,0,4.6244,4.6253,4.643,4.649,4.6509,4.6628,4.6681,4.6779,4.6795,4.6932,4.6964,4.6991,4.7112,4.7123,4.7265,4.7267,4.7466,4.7447,4.744,4.7437,4.7562,4.755,4.797,4.8024,4.7664,4.7668,4.7671,0,4.6427,4.654,4.6611,4.6679,4.672,4.6831,4.6898,4.6891,4.6963,4.7054,4.7141,4.7257,4.735,4.7547,4.758,4.7688,4.7671,4.7811,4.7688,4.7688,4.7673,4.7666,4.7677,4.7835,4.7839,4.7842,4.7845,0,4.6752,4.675,4.6848,4.6947,4.7028,4.7107,4.718,4.7239,4.724,4.7324,4.7445,4.7517,4.766,4.7776,4.7882,4.7922,4.7885,4.7883,4.7918,4.7924,4.7915,4.7921,4.7505,4.7874,4.7871,4.7869,4.7867,4.7866,4.6986,4.7083,4.7147,4.7257,4.7311,4.738,4.7474,4.7501,4.7601,4.7715,4.7705,4.784,4.791,4.8047,4.8095,4.8201,4.8155,4.8206,4.8219,4.8231,4.8244,4.7898,4.8221,4.822,4.8219,4.8219,4.8218,0,4.7308,4.7346,4.7447,4.7549,4.7636,4.759,4.7668,4.7744,4.7862,4.7929,4.802,4.816,4.8272,4.8313,4.8423,4.85,4.8486,4.8529,4.8524,4.8534,4.8279,4.8238,4.8539,4.8539,4.8539,4.8539,4.8539,4.8539,4.7486,4.7647,4.7653,4.784,4.7877,4.8007,4.8055,4.8119,4.8172,4.8329,4.8421,4.8446,4.8503,4.8616,4.8717,4.8726,4.8769,4.882,4.8822,4.8584,4.8552,4.8521,4.8482,4.8829,4.883,4.9067,4.9069,4.9071]},{"header":{"parameterUnit":"m.s-1","parameterCategory":1,"la1":30.2991,"la2":30.254,"lo1":-89.0895,"lo2":-89.0444,"dy":0.0017,"dx":0.0017,"nx":28,"ny":28,"refTime":"2024-09-27T21:00:00:Z","depth":0,"parameterNumber":3,"parameterNumberName":"V-component_of_WINDS"},"data":[0,0,0,0,0,0,0,0,0,0,0,0,0,0,0,0,0,0,0,0,0,0,0,0,0,0,0,0,0,0,0,0,0,0,0,0,0,0,0,0,0,0,0,0,0,0,0,0,0,0,0,0,0,0,0,0,0,0,2.7752,2.7752,0,2.7736,2.7736,2.7736,2.7642,2.764,2.7638,2.7635,2.7622,2.7623,2.7625,0,0,0,0,0,0,0,0,0,0,0,0,0,2.7702,2.7704,2.7752,2.7752,2.7752,2.7736,2.7736,2.7736,2.7642,2.764,2.7637,2.7634,2.7621,2.7623,2.7625,0,0,0,0,0,0,0,0,0,0,0,0,0,2.7709,2.7704,2.7752,2.7703,2.7698,2.7736,2.7736,2.7736,2.7643,2.764,2.7636,2.7633,2.762,2.7623,2.7625,2.771,0,0,2.7633,2.7634,0,0,0,0,0,0,0,0,2.7709,2.7711,2.771,2.7706,2.7701,2.7688,2.7713,2.7727,2.7644,2.7664,2.7635,2.7631,2.7646,2.7647,2.7651,2.7709,2.7708,2.7634,2.7635,2.7636,2.7637,0,0,0,0,0,0,0,2.7709,2.7711,2.7746,2.7711,2.7705,2.7682,2.768,2.7716,2.7675,2.7662,2.7655,2.7655,2.7643,2.7649,2.765,2.7708,2.7634,2.7636,2.7637,2.7638,2.7833,2.7837,0,0,0,0,0,0,2.7715,2.7711,2.7746,2.7745,2.7697,2.7686,2.7683,2.7696,2.7674,2.7667,2.7658,2.765,2.7646,2.7647,2.7649,2.7746,2.7636,2.7639,2.764,2.783,2.7834,2.7838,0,0,0,0,0,0,2.7714,2.7719,2.7747,2.7726,2.7728,2.769,2.7705,2.7697,2.7702,2.767,2.7663,2.7671,2.7643,2.7646,2.7695,2.7744,2.764,2.7642,2.7826,2.7831,2.7836,2.7941,0,0,0,0,0,0,2.7713,2.7719,2.775,2.7728,2.773,2.7793,2.7708,2.7699,2.7707,2.7697,2.7681,2.7675,2.7641,2.7692,2.7698,2.7746,2.7644,2.7821,2.7828,2.7834,2.7933,2.7949,2.7963,0,0,0,0,0,2.7712,2.7781,2.7753,2.7757,2.7768,2.7796,2.7797,2.7756,2.7711,2.7743,2.7722,2.7675,2.7738,2.7697,2.7703,2.7753,2.7818,2.7826,2.7834,2.7926,2.7946,2.7963,0,0,0,0,0,0,2.7812,2.7777,2.7745,2.7809,2.7806,2.778,2.7818,2.7778,2.7788,2.7779,2.7728,2.7725,2.7782,2.7772,2.7728,2.7833,2.777,2.7779,2.7838,2.7856,2.7871,2.7872,2.7647,0,0,0,0,0,2.7841,2.7866,2.7835,2.7894,2.7894,2.7857,2.7867,2.7836,2.7831,2.7829,2.7812,2.7809,2.7828,2.7841,2.7857,2.7931,2.7926,2.7968,2.7983,2.7996,2.8005,2.8042,2.8061,2.7865,2.7865,2.7865,0,0,2.7902,2.7887,2.7905,2.7914,2.7908,2.7935,2.7856,2.7888,2.7908,2.7834,2.7879,2.7867,2.786,2.7922,2.7948,2.7916,2.8058,2.8006,2.8016,2.8018,2.8053,2.8071,2.8088,2.787,2.7869,2.7868,0,0,2.8027,2.8018,2.8066,2.8061,2.8052,2.8027,2.8039,2.8018,2.8007,2.8051,2.7996,2.8019,2.8053,2.805,2.8053,2.8177,2.8134,2.8183,2.8263,2.83,2.8315,2.8329,2.8373,2.8389,2.8192,2.8193,2.8193,0,2.8105,2.8143,2.8097,2.8132,2.8137,2.8071,2.8119,2.8117,2.8114,2.8119,2.8083,2.8123,2.8114,2.8174,2.8204,2.8209,2.8221,2.8185,2.8317,2.833,2.8342,2.8383,2.84,2.8199,2.8198,2.8197,2.8197,0,2.8238,2.8266,2.8306,2.8303,2.8313,2.8355,2.8316,2.8331,2.8299,2.8278,2.8323,2.831,2.8322,2.8333,2.8303,2.8389,2.8369,2.8326,2.8261,2.8367,2.8405,2.842,2.8207,2.8205,2.8203,2.8202,0,0,2.8427,2.8398,2.8413,2.8411,2.8396,2.8416,2.8455,2.8465,2.848,2.848,2.8511,2.8541,2.85,2.8504,2.8472,2.8505,2.8603,2.8457,2.8456,2.8484,2.8697,2.873,2.8749,2.8575,2.8578,2.858,2.8698,0,2.8547,2.8611,2.857,2.8641,2.8665,2.8601,2.8635,2.863,2.8611,2.8629,2.8608,2.863,2.8574,2.8576,2.8606,2.8585,2.8645,2.8576,2.8604,2.8605,2.8607,2.8769,2.8804,2.8916,2.8712,2.8715,2.8717,0,2.8695,2.8701,2.8774,2.8753,2.8761,2.8792,2.8798,2.8816,2.8809,2.8793,2.8797,2.8756,2.8793,2.8729,2.878,2.8733,2.8742,2.8734,2.8737,2.8738,2.8668,2.8775,2.8951,2.8968,2.874,2.8738,2.8736,0,2.8825,2.8851,2.8897,2.8897,2.8874,2.8898,2.8889,2.8878,2.8887,2.8892,2.8897,2.8907,2.8913,2.8922,2.8886,2.8842,2.8941,2.8874,2.8929,2.893,2.8952,2.8952,2.9133,2.8959,2.8958,2.8958,2.8958,0,2.8963,2.901,2.8955,2.8984,2.9035,2.8987,2.9039,2.9024,2.9015,2.904,2.8986,2.9011,2.8961,2.8981,2.8953,2.8999,2.9002,2.899,2.8982,2.8995,2.8996,2.9,2.8991,2.8962,2.8961,2.8961,2.896,0,2.9117,2.9082,2.9128,2.9102,2.9097,2.9135,2.9113,2.9139,2.9116,2.9148,2.9153,2.9117,2.9138,2.9102,2.9119,2.91,2.9164,2.9144,2.9166,2.916,2.9217,2.9212,2.9407,2.943,2.9242,2.9243,2.9245,0,2.9207,2.9242,2.9219,2.9231,2.9226,2.9246,2.9254,2.9209,2.922,2.9214,2.924,2.9256,2.9266,2.9302,2.9278,2.929,2.927,2.9337,2.9272,2.9283,2.9271,2.9269,2.9273,2.9351,2.9354,2.9355,2.9357,0,2.9371,2.9352,2.9365,2.9372,2.9383,2.9387,2.9387,2.9401,2.9353,2.9368,2.9387,2.9395,2.9411,2.9428,2.9434,2.9426,2.9384,2.9378,2.9391,2.9405,2.9416,2.941,2.9203,2.9374,2.9372,2.9371,2.937,2.9369,2.9496,2.9523,2.9511,2.9527,2.9522,2.9523,2.9546,2.9525,2.9541,2.955,2.9522,2.9548,2.954,2.9543,2.954,2.956,2.953,2.955,2.9554,2.956,2.9569,2.9413,2.9561,2.9561,2.956,2.956,2.9559,0,2.9657,2.9645,2.9661,2.9662,2.9675,2.9633,2.9631,2.9645,2.9668,2.9663,2.9674,2.9697,2.9712,2.9689,2.9701,2.9721,2.9702,2.9726,2.9724,2.9723,2.9595,2.9582,2.9741,2.9741,2.9741,2.9741,2.9741,2.9741,2.9742,2.9786,2.9765,2.9806,2.9794,2.9819,2.9821,2.9822,2.9817,2.9845,2.9857,2.9841,2.9829,2.9839,2.9852,2.9845,2.9852,2.9882,2.9868,2.975,2.9732,2.9715,2.9702,2.9884,2.9884,2.9994,2.9995,2.9996]}]]